TimeCDT,TemperatureF,Dew PointF,Humidity,Sea Level PressureIn,VisibilityMPH,Wind Direction,Wind SpeedMPH,Gust SpeedMPH,PrecipitationIn,Events,Conditions,WindDirDegrees,DateUTC
12:51 AM,72.0,55.0,55,29.98,10.0,NW,3.5,-,N/A,,Clear,320,2013-07-03 05:51:00
1:51 AM,71.1,54.0,55,29.98,10.0,NW,4.6,-,N/A,,Partly Cloudy,310,2013-07-03 06:51:00
2:51 AM,73.0,50.0,44,29.98,10.0,Calm,Calm,-,N/A,,Partly Cloudy,0,2013-07-03 07:51:00
3:51 AM,73.0,48.9,42,29.97,10.0,NE,4.6,-,N/A,,Partly Cloudy,40,2013-07-03 08:51:00
4:51 AM,72.0,50.0,46,29.97,10.0,NE,3.5,-,N/A,,Partly Cloudy,40,2013-07-03 09:51:00
5:51 AM,71.1,51.1,49,29.97,10.0,Calm,Calm,-,N/A,,Partly Cloudy,0,2013-07-03 10:51:00
6:51 AM,73.0,51.1,46,29.96,10.0,Calm,Calm,-,N/A,,Mostly Cloudy,0,2013-07-03 11:51:00
7:51 AM,73.0,54.0,51,29.99,10.0,NNW,4.6,-,N/A,,Mostly Cloudy,330,2013-07-03 12:51:00
8:51 AM,81.0,55.9,42,29.99,10.0,NE,5.8,-,N/A,,Scattered Clouds,50,2013-07-03 13:51:00
9:51 AM,86.0,55.9,36,30.00,10.0,East,5.8,-,N/A,,Scattered Clouds,80,2013-07-03 14:51:00
10:51 AM,89.1,55.0,31,30.00,10.0,NE,4.6,-,N/A,,Partly Cloudy,50,2013-07-03 15:51:00
11:51 AM,91.0,48.0,23,29.99,10.0,SE,4.6,-,N/A,,Scattered Clouds,130,2013-07-03 16:51:00
12:51 PM,91.9,39.9,16,29.97,10.0,Variable,3.5,-,N/A,,Scattered Clouds,0,2013-07-03 17:51:00
1:51 PM,93.9,42.1,17,29.95,10.0,NNW,8.1,16.1,N/A,,Scattered Clouds,340,2013-07-03 18:51:00
2:51 PM,93.9,42.1,17,29.93,10.0,SSW,5.8,-,N/A,,Scattered Clouds,200,2013-07-03 19:51:00
3:51 PM,95.0,42.1,16,29.90,10.0,Variable,5.8,-,N/A,,Scattered Clouds,0,2013-07-03 20:51:00
4:51 PM,95.0,44.1,17,29.88,10.0,Variable,3.5,-,N/A,,Scattered Clouds,0,2013-07-03 21:51:00
5:51 PM,93.9,43.0,17,29.86,10.0,Variable,5.8,-,N/A,,Scattered Clouds,0,2013-07-03 22:51:00
6:51 PM,93.9,42.1,17,29.85,10.0,NNE,6.9,-,N/A,,Scattered Clouds,20,2013-07-03 23:51:00
7:51 PM,91.0,44.1,20,29.86,10.0,North,3.5,-,N/A,,Scattered Clouds,10,2013-07-04 00:51:00
8:51 PM,87.1,44.1,22,29.86,10.0,NNE,4.6,-,N/A,,Partly Cloudy,20,2013-07-04 01:51:00
9:51 PM,82.0,48.9,31,29.87,10.0,Calm,Calm,-,N/A,,Partly Cloudy,0,2013-07-04 02:51:00
10:51 PM,79.0,55.0,44,29.89,10.0,East,5.8,-,N/A,,Partly Cloudy,100,2013-07-04 03:51:00
11:51 PM,79.0,61.0,54,29.91,10.0,SSE,9.2,-,N/A,,Partly Cloudy,160,2013-07-04 04:51:00